Starlink 33851

operational
NORAD ID: 63683 Int'l Des: 2025-085 Owner: SPXS Country: US Constellation: starlink
LEOCIRCULAR

Starlink 33851について

説明を読み込み中...

リアルタイム位置

3D地球を読み込み中...

次回通過

高度履歴

Altitude vs Time

uPlot chart will show altitude changes over time

軌道要素

1 63683U 25085V 26035.54200320 .00027291 00000-0 99704-3 0 9991
2 63683 42.9940 217.8303 0000321 214.1900 145.8931 15.27597949 43807
Epoch: Feb 4, 2026 • Age: 29 hours

現在のステータス

高度 482.3 km
速度 7.63 km/s
衛星直下点 22.34°N, 39.23°W
打ち上げ日 Apr 28, 2025
運用期間 0.7 years
タイプ internet

技術仕様

分類 Payload
質量 575.00 kg
乾燥質量 530.00 kg
総質量 575.00 kg
長さ 0.30 m
直径 4.10 m
スパン 29.00 m
形状 Box + pan
製造者 SPXS
バスタイプ Starlink V2MO
フェーズステータス In Orbit
所有者/国 SPXS/US

大規模コンステレーション

Loading constellations...